Date,TemperatureHighF,TemperatureAvgF,TemperatureLowF,DewpointHighF,DewpointAvgF,DewpointLowF,HumidityHigh,HumidityAvg,HumidityLow,PressureMaxIn,PressureMinIn,WindSpeedMaxMPH,WindSpeedAvgMPH,GustSpeedMaxMPH,PrecipitationSumIn
2013-2-1,18,14,9,11,7,2,84,72,63,30.02,29.46,20,5,51,0.01
2013-2-2,18,12,5,9,3,-3,85,69,55,30.18,30.01,10,2,25,0.00
2013-2-3,22,15,7,11,8,4,86,73,55,30.02,29.72,7,1,12,0.00
2013-2-4,16,13,9,10,6,2,84,74,60,29.88,29.70,10,2,25,0.00
2013-2-5,22,14,4,14,6,1,87,71,56,29.98,29.88,5,0,18,0.00
2013-2-6,25,19,13,19,10,-1,93,71,47,30.24,29.87,11,3,23,0.00
2013-2-7,21,14,5,6,1,-4,68,57,46,30.47,30.25,8,1,16,0.00
2013-2-8,19,16,12,16,11,4,92,83,58,30.41,29.77,13,3,22,0.42
2013-2-9,15,10,6,13,6,-2,91,83,68,30.25,29.76,30,9,46,0.25
2013-2-10,35,20,7,7,2,-3,68,47,23,30.46,30.25,19,3,26,0.00
2013-2-11,41,29,19,39,22,0,97,78,35,30.29,29.61,16,4,24,0.23
2013-2-12,30,28,24,26,24,20,90,86,80,29.82,29.58,14,6,33,0.00
2013-2-13,28,25,21,21,19,16,87,79,69,29.81,29.70,9,2,19,0.00
2013-2-14,35,27,20,22,18,15,82,71,55,29.93,29.69,8,1,18,0.00
2013-2-15,40,33,28,27,24,19,91,70,57,29.91,29.85,10,2,24,0.01
2013-2-16,28,23,16,23,15,5,87,73,60,29.91,29.73,12,3,19,0.00
2013-2-17,16,10,3,5,0,-5,83,64,54,29.73,29.50,31,9,37,0.00
2013-2-18,19,10,2,1,-3,-6,72,56,37,30.16,29.73,20,6,39,0.00
2013-2-19,32,26,12,31,16,-2,96,67,37,30.17,29.55,15,3,19,0.15
2013-2-20,31,18,14,29,14,10,92,84,76,29.76,29.55,14,4,27,0.01
2013-2-21,20,15,10,15,9,5,85,77,67,30.28,29.71,22,7,29,0.00
2013-2-22,33,25,17,19,17,14,88,73,57,30.39,30.25,18,4,27,0.00
2013-2-23,27,25,23,26,24,19,96,93,76,30.24,29.89,10,3,16,0.10
2013-2-24,33,29,25,30,27,23,95,93,88,29.88,29.71,9,1,16,0.16
2013-2-25,30,26,23,28,23,20,92,87,80,30.21,29.88,10,2,20,0.00
2013-2-26,32,28,24,27,24,21,92,86,78,30.29,30.10,10,3,15,0.00
2013-2-27,31,28,26,30,27,23,97,95,88,30.10,29.60,10,3,21,0.83
2013-2-28,34,30,26,34,30,25,98,97,96,29.59,29.52,7,1,14,0.07